Starlink 31651

operational
NORAD ID: 59860 Int'l Des: 2024-098 Owner: SPXS Country: US Constellation: starlink
LEOCIRCULAR

关于 Starlink 31651

正在加载描述...

实时位置

正在加载3D地球...

即将过境

高度历史

Altitude vs Time

uPlot chart will show altitude changes over time

两行轨道根数

1 59860U 24098C 25257.52130532 .00000990 00000-0 45475-4 0 9990
2 59860 42.9986 192.8854 0001072 286.7031 73.3703 15.27579089 74908
Epoch: Sep 14, 2025 • Age: 23 hours

当前状态

高度 482.5 km
速度 7.63 km/s
星下点 10.62°N, 166.62°W
发射日期 May 24, 2024
运行时间 1.3 years
类型 internet

技术详情

分类 Payload
质量 730.00 kg
干质量 700.00 kg
总质量 730.00 kg
长度 0.30 m
直径 4.10 m
跨度 29.00 m
形状 Box + pan
制造商 SPXS
平台类型 Starlink V2M
阶段状态 In Orbit
所有者/国家 SPXS/US

大型星座

Loading constellations...